Retour au catalogue

NOAA 16 DEB

ActifSSO
NORAD 42426·DEBRIS·🇺🇸 United States

Lancé Sep 21, 2000 depuis Vandenberg Space Force Base

Loading…

Prochains Passages (prochaines 24 heures)

TLE

VieillissantSource: Space-Track

Époque: Sep 10, 2026, 07:04 UTC

1 42426U 00055TW  26253.29483834  .00002116  00000-0  90270-3 0  9998
2 42426  98.5768 274.5664 0011025 252.0414 107.9564 14.26086650520393

Suivez NOAA 16 DEB en temps réel avec AllMySat

Download on the App Store